Погода в Лэшани

Китай     29°34′19″N   103°43′56″E
темп.,
°C
ветер,
м/с
пор.,
м/с
влажн.,
%
обл.,
%
осадки,
мм/ч
давл.,
гПа
погр.,
м
11 мая, вт
вт1123:00+21з4688100 2.6 1006189
02:00+20зюз1290100 4.3 100578
05:00+20з1187100 0.0 100619
08:00+20з1184100 0.0 100814
11:00+23зюз1273100 0.0 100888
14:00+28св214661 0.0 10061103
17:00+27вюв1147100 0.0 10041393
20:00+23ю1167100 0.0 100511
12 мая, ср
ср1223:00+21зюз3779100 0.3 1007187
02:00+21ю2380100 0.3 100787
05:00+20зюз018033 0.0 100611
08:00+22юз007442 0.0 1007174
11:00+27в115517 0.0 10061031
14:00+29вюв224664 0.0 10032022
17:00+27св2461100 0.0 1002506
20:00+24зюз1170100 0.1 100212
13 мая, чт
чт1323:00+22зюз117776 0.1 100411
02:00+22ссз1180100 0.1 100311
05:00+21ю1182100 0.0 100311
08:00+23юз0176100 0.0 1004129
11:00+27юв2260100 0.3 1003954
14:00+24з2377100 1.3 1001276
17:00+23сз2379100 0.3 1000270
20:00+22сз2385100 0.6 100072
14 мая, пт
пт1423:00+21сз019020 0.6 100111
02:00+20ююз119049 0.6 99912
05:00+20сз118978 0.0 99812
08:00+22сз018371 0.0 999153
11:00+25вюв117260 0.0 999447
14:00+29вюв2254100 0.0 9961090
17:00+31всв114989 0.0 9931565
20:00+26с1270100 0.0 99519
15 мая, сб
сб1523:00+25зсз1175100 0.2 99713
02:00+23зюз2383100 2.5 99752
05:00+22ссз389099 2.9 998320
08:00+19сз4886100 7.9 1000367
11:00+19ссз4990100 4.1 1002492
14:00+20ссз3784100 5.9 1002447
17:00+20з1285100 0.4 100175
20:00+20ююз1184100 0.4 100219